This demonstration page uses our WeatherBlox Daily Observations layout. Learn more.

Left ArrowRight Arrow

38.88101, -77.10428

Hourly Observations for October 22, 2021

Temp ( °F °C ) Dew Point ( °F °C ) Humidity (%) Winds ( mph kmh ) Pressure ( in mb ) Visibility ( mi km ) Precip ( " mm )
12:52 am 00:52 Partly Cloudy 67 19.4 55 12.8 66 66 SSW 12 19 29.84 1010 10 16 N/A
1:52 am 01:52 Mostly Cloudy 67 19.4 55 12.8 66 66 SSW 9 15 29.85 1011 10 16 N/A
2:52 am 02:52 Mostly Cloudy 68 20 55 12.8 63 63 W 8 13 29.87 1012 10 16 N/A
3:52 am 03:52 Cloudy 68 20 56 13.3 65 65 W 5 7 29.87 1012 10 16 N/A
4:52 am 04:52 Mostly Cloudy 65 18.3 56 13.3 73 73 W 5 7 29.88 1012 10 16 N/A
5:52 am 05:52 Mostly Cloudy 66 18.9 52 11.1 61 61 WNW 8 13 29.89 1012 10 16 N/A
6:52 am 06:52 Mostly Cloudy 64 17.8 50 10 60 60 NW 14 22 29.91 1013 10 16 N/A
7:52 am 07:52 Partly Cloudy 62 16.7 47 8.3 58 58 NW 14 22 29.93 1014 10 16 N/A
8:52 am 08:52 Partly Cloudy 63 17.2 46 7.8 54 54 NW 12 19 29.96 1015 10 16 N/A
9:52 am 09:52 Partly Cloudy 64 17.8 47 8.3 54 54 NNW 13 20 29.97 1015 10 16 N/A
10:52 am 10:52 Partly Cloudy 67 19.4 45 7.2 45 45 NW 9 15 29.98 1015 10 16 N/A
11:52 am 11:52 Mostly Cloudy 68 20 46 7.8 45 45 NW 10 17 29.98 1015 10 16 N/A
12:52 pm 12:52 Partly Cloudy 67 19.4 46 7.8 47 47 NNE 6 9 29.96 1015 10 16 N/A
1:52 pm 13:52 Partly Cloudy 70 21.1 45 7.2 41 41 N 6 9 29.94 1014 10 16 N/A
2:52 pm 14:52 Mostly Cloudy 69 20.6 46 7.8 44 44 N 5 7 29.93 1014 10 16 N/A
3:52 pm 15:52 Mostly Cloudy 70 21.1 46 7.8 42 42 VRB 7 11 29.93 1013 10 16 N/A
4:52 pm 16:52 Mostly Cloudy 69 20.6 47 8.3 45 45 WNW 8 13 29.93 1014 10 16 N/A
5:52 pm 17:52 Partly Cloudy 67 19.4 46 7.8 47 47 NW 10 17 29.94 1014 10 16 N/A
6:52 pm 18:52 Partly Cloudy 65 18.3 46 7.8 51 51 NW 8 13 29.94 1014 10 16 N/A
7:52 pm 19:52 Mostly Cloudy 63 17.2 47 8.3 56 56 NNW 8 13 29.96 1014 10 16 N/A
8:52 pm 20:52 Partly Cloudy 62 16.7 47 8.3 58 58 NNW 7 11 29.96 1015 10 16 N/A
9:52 pm 21:52 Partly Cloudy 59 15 48 8.9 67 67 NNW 8 13 29.97 1015 10 16 N/A
10:52 pm 22:52 Partly Cloudy 59 15 48 8.9 67 67 NNW 6 9 29.97 1015 10 16 N/A
11:52 pm 23:52 Partly Cloudy 57 13.9 49 9.4 74 74 NNW 6 9 29.96 1015 10 16 N/A

Powered by AerisWeather